User: anonymous   Login
Location: Columbia
(38.9520°N, 92.3340°W)
Time: 11:54:14
(UTC-05:00)
Language:

SJ-11-01 - Orbit

View from above orbital plane
View from above orbital plane
View from above satellite
View from above satellite

Ground track
Ground track

The orbit data is extracted from the following two-line orbital elements,

1 36088U 09061A   16146.12158284  .00000184  00000-0  48304-4 0  9996
2 36088  98.1902 193.8369 0012627  42.6731 317.5458 14.59837311348028
Epoch (UTC): 25 May 2016 02:55:04
Eccentricity: 0.0012627
inclination: 98.1902°
perigee height: 685 km
apogee height: 702 km
right ascension of ascending node: 193.8369°
argument of perigee: 42.6731°
revolutions per day: 14.59837311
mean anomaly at epoch: 317.5458°
orbit number at epoch: 34802

The dashed part of the orbit path shows where the satellite is in the earth's shadow,  

DLR